Location: Grieser Field
(39.7333°N, 81.7975°W)
Time: 14:06:26
(UTC-04:00)

Daily predictions for brighter satellites

Satellite Brightness Start Highest point End
(mag) Time Altitude Azimuth Time Altitude Azimuth Time Altitude Azimuth
SPOT 3 Rocket 3.5 19:32:39 10° SSE 19:37:47 79° ENE 19:42:58 10° N
NOAA 12 4.2 19:36:34 10° SSE 19:41:42 59° ENE 19:46:54 10° N
Meteor 1-24 Rocket 4.3 19:36:15 10° N 19:41:44 37° ENE 19:47:01 10° SE
Milstar 3 Cent rocket 3.9 19:41:35 10° SW 19:45:49 18° S 19:49:13 10° SE
Cosmos 1656 Rocket 3.7 19:40:32 10° NNW 19:46:10 68° ENE 19:51:41 10° SSE
ATLAS 2AS CENTAUR R/B 4.5 19:41:04 10° NNW 19:46:48 20° NNE 19:52:20 10° ENE
METEOR-M 4.4 19:45:10 10° S 19:50:31 79° WSW 19:55:54 10° NNW
FENGYUN 3A 3.7 19:46:11 10° SSE 19:51:27 62° ENE 19:56:45 10° N
NOSS 3-1 (A) 4.1 19:49:51 10° NNW 19:57:31 70° NE 20:05:57 10° SE
Cosmos 841 Rocket 3.6 19:54:53 10° SSW 20:00:01 79° WNW 20:05:11 10° NNE
CZ-4 R/B 4.4 19:57:34 10° SW 20:00:48 22° W 20:04:05 10° NW
H-2A R/B 3.3 19:57:37 10° SE 20:01:01 36° ENE 20:04:31 10° N
Cosmos 1544 3.6 19:58:06 10° SSE 20:01:24 35° E 20:04:43 10° NNE
SJ-6B 3.5 19:59:05 10° SE 20:02:42 34° ENE 20:06:16 10° N
NOSS 3-1 (C) 4.2 19:57:16 10° NW 20:05:00 85° WSW 20:13:31 10° SSE
BREEZE-M (TANK) 4.2 19:47:33 10° WNW 20:05:24 90° SW 20:09:26 11° SE
USA 81 4.1 20:01:43 10° N 20:07:02 89° W 20:12:18 10° S
COSMO-SKYMED 1 4.0 20:03:33 10° N 20:07:39 42° WNW 20:11:44 10° SW
Cosmos 1953 3.8 20:05:11 10° SE 20:07:52 17° E 20:10:34 10° NE
Cosmos 540 Rocket 3.4 20:04:08 10° S 20:09:08 61° ESE 20:14:11 10° NNE
Cosmos 1378 4.2 20:10:16 10° NNW 20:13:55 49° W 20:17:34 10° S
SL-27 R/B 3.2 20:11:33 10° SSE 20:14:47 32° ESE 20:18:04 10° NE
BREEZE M DEB (TANK) 4.4 20:13:47 10° W 20:20:44 30° NNW 20:23:34 10° NE
COSMOS 2406 3.3 20:15:41 10° SSW 20:21:23 85° WNW 20:27:10 10° NNE
Cosmos 1707 4.5 20:17:57 10° NNW 20:21:34 36° W 20:25:11 10° SSW
SJ 16-02 1.9 20:18:19 10° N 20:22:24 36° ENE 20:24:56 19° ESE
In-Cosmos 22 4.2 20:16:54 10° N 20:22:37 69° E 20:28:21 10° SSE
HJ-1C 3.5 20:20:00 10° SSE 20:23:15 53° ENE 20:26:33 10° N
Cosmos 1356 Rocket 3.8 20:21:07 10° NNW 20:25:25 70° W 20:29:41 10° S
Meteor 1-22 Rocket 4.2 20:19:53 10° S 20:25:35 90° E 20:31:06 10° N
Cosmos 1674 3.8 20:22:43 10° NNE 20:25:43 22° ENE 20:25:44 22° ENE
Cosmos 1766 3.3 20:24:04 10° S 20:28:00 81° W 20:31:55 10° N
Resurs 1-3 4.2 20:33:13 26° ESE 20:34:56 35° ENE 20:38:56 10° N
ISS -3.7 20:35:46 10° WSW 20:39:02 72° NW 20:40:35 28° NE
FengYun 1-2 T 4.3 20:33:27 10° SSE 20:39:03 81° WSW 20:44:39 10° NNW
ALOS 3.7 20:34:50 10° SSW 20:39:11 40° W 20:43:36 10° NNW
Cosmos 2074 Rocket 4.4 20:33:57 10° SSW 20:40:07 68° W 20:46:19 10° N
Cosmos 2154 Rocket 3.9 20:34:23 10° S 20:40:31 64° E 20:46:42 10° NNE
MOS 1-B Rocket 4.2 20:37:07 17° SE 20:41:26 45° ENE 20:46:46 10° N
BREEZE-M DEB (TANK) 3.6 20:32:12 10° WSW 20:45:41 89° NNW 20:48:25 25° ENE
Meteor 1-21 Rocket 4.4 20:43:28 10° N 20:49:00 49° ENE 20:51:42 28° SE
Elektron 1 3.6 20:49:28 10° NNW 20:52:34 68° NE 20:52:34 68° NE
Spot 2 Rocket 3.6 20:50:59 31° SE 20:53:10 54° ENE 20:58:04 10° N
Cosmos 1758 3.1 20:49:19 10° S 20:53:19 75° E 20:57:19 10° N
Cosmos 1812 Rocket 3.8 20:50:42 10° SSW 20:55:08 72° W 20:59:38 10° N
Cosmos 2341 Rocket 4.0 20:49:42 10° S 20:55:45 59° E 21:01:51 10° NNE
Cosmos 2082 Rocket 4.2 20:53:03 10° SSE 21:03:56 - NE 20:53:28 12° SSE
Cosmos 1805 3.8 20:54:25 10° SSW 20:58:15 60° W 21:02:08 10° N
ATLAS 5 CENTAUR R/B 3.5 20:56:31 10° S 20:57:40 17° S 20:57:40 17° S
Resurs 01 Rocket 1.5 21:01:55 38° SSE 21:03:34 80° ENE 21:07:59 10° N
GP-B 3.0 21:00:15 10° N 21:04:43 86° W 21:08:55 11° S
CZ-2D R/B 3.4 21:04:03 35° S 21:05:34 71° W 21:09:22 10° NNW
Cosmos 2278 3.9 21:00:52 10° NNW 21:06:21 47° ENE 21:07:09 44° E
ATLAS CENTAUR R/B 4.2 20:55:58 10° NW 21:06:56 43° WSW 21:10:27 16° S
Cosmos 1939 Rocket 4.1 21:12:33 29° NNE 21:12:33 29° NNE 21:14:47 10° N
Nadezhda 3 Rocket 4.0 21:04:42 10° N 21:11:00 83° W 21:17:13 10° S
Cosmos 1656 4.0 21:10:33 10° NNW 21:16:01 46° ENE 21:16:07 46° ENE
Cosmos 2218 Rocket 4.3 21:20:07 45° ENE 21:20:07 45° ENE 21:25:21 10° NNE
Cosmos 2285 Rocket 3.9 21:16:25 10° S 21:22:49 77° ESE 21:29:16 10° NNE
Cosmos 1697 Rocket 3.4 21:18:20 10° N 21:22:57 36° NE 21:22:57 36° NE
Cosmos 1809 Rocket 4.3 21:18:21 13° S 21:23:51 72° E 21:29:57 10° NNE
Envisat 3.0 21:24:15 47° S 21:25:42 80° WSW 21:30:49 10° NNW
Cosmos 1980 Rocket 3.7 21:21:17 10° N 21:24:38 22° NE 21:24:38 22° NE
Cosmos 1295 Rocket 4.3 21:20:54 10° S 21:27:00 89° W 21:33:08 10° N
Okean 3 Rocket 3.7 21:25:05 10° N 21:29:16 73° NW 21:29:16 73° NW
Gbstr 26 Del rocket 4.3 21:27:53 10° SSW 21:31:04 39° SSW 21:31:04 39° SSW
Meteor 2-15 4.2 21:33:11 10° N 21:39:16 81° E 21:39:39 77° SE
ATLAS 2AS CENTAUR R/B 2.9 21:31:33 10° NNW 21:39:31 65° NE 21:40:35 59° E
SL-8 Rocket 3.8 21:38:36 59° S 21:39:51 83° E 21:46:03 10° N
Meteor 2-14 Rocket 4.4 21:43:34 70° NE 21:43:34 70° NE 21:49:08 10° N
Cosmos 1953 4.1 21:40:25 10° SW 21:44:02 31° WNW 21:47:40 10° NNW
Meteor 2-21 Rocket 4.3 21:50:33 89° NNE 21:50:33 89° NNE 21:56:41 10° N
H-2A R/B 4.3 21:57:09 13° NNE 21:57:09 13° NNE 21:57:48 10° NNE
SL-16 R/B 4.4 21:51:59 10° NNE 21:53:07 13° NNE 21:53:07 13° NNE
NOSS 3-3 (A) 4.3 21:51:13 10° SSW 22:05:31 - NE 21:55:46 54° SW
NOSS 3-3 (C) 4.4 21:51:19 10° SSW 22:05:40 - NE 21:55:39 51° SW
SJ 16-02 3.8 21:57:42 10° NW 22:00:41 18° W 22:02:00 16° WSW
Centaur D AC-29 4.2 22:23:50 10° SW 22:24:06 11° SW 22:24:06 11° SW
FALCON 9 R/B 4.3 22:35:09 10° WSW 22:36:10 18° WSW 22:36:10 18° WSW
Cosmos 2082 Rocket 4.4 22:45:39 17° N 22:45:39 17° N 22:47:10 10° N
Cosmos 1980 Rocket 4.4 23:04:38 10° NNW 23:06:24 20° NW 23:06:24 20° NW
